Weather History for KMAN - November, 2012

Change the Weather History Date:

Thursday, November 29, 2012

  Actual Average (KBOI) Record (KBOI)
Temperature  
Mean Temperature 40 °F 34 °F  
Max Temperature 53 °F 42 °F 68 °F (1932)
Min Temperature 26 °F 28 °F -9 °F (1896)
Degree Days  
Heating Degree Days 26 31  
Month to date heating degree days 718  
Since 1 July heating degree days 1224  
Cooling Degree Days 0 0  
Month to date cooling degree days 0  
Year to date cooling degree days 942  
Moisture  
Dew Point 35 °F    
Average Humidity 80    
Maximum Humidity 100    
Minimum Humidity 51    
Precipitation  
Precipitation 0.00 in 0.05 in 0.52 in (1917)
Month to date precipitation 1.30  
Year to date precipitation 10.13  
Snow  
Snow 0.00 in 0.10 in 3.00 in (1919)
Month to date snowfall 2.4  
Since 1 July snowfall 2.5  
Snow Depth -    
Sea Level Pressure  
Sea Level Pressure 29.93 in    
Wind  
Wind Speed 5 mph (SSE)    
Max Wind Speed 20 mph    
Max Gust Speed 26 mph    
Visibility 7 miles    
Events      
T = Trace of Precipitation, MM = Missing Value Source: NWS Daily Summary

Daily Weather History Graph

Daily Weather History Graph

Search for Another Location

Airport or City:

Trip Planner

Search our weather history database for the weather conditions in past years. The results will help you decide how hot, cold, wet, or windy it might be!

Date:

Astronomy

Nov. 29, 2012 Rise Set
Actual Time 7:57 AM MST 5:11 PM MST
Civil Twilight 7:25 AM MST 5:43 PM MST
Nautical Twilight 6:50 AM MST 6:18 PM MST
Astronomical Twilight 6:15 AM MST 6:53 PM MST
Moon 6:17 PM MST (11/29) 8:48 AM MST (11/29)
Length of Visible Light 10h 17m
Length of Day
9h 13m
Full, 99% of the Moon is Illuminated
Nov 29
Full
Dec 6
Last Quarter
Dec 13
New
Dec 19
First Quarter
Dec 28
Full

Hourly Weather History & Observations

Time (MST) Temp. Windchill Dew Point Humidity Pressure Visibility Wind Dir Wind Speed Gust Speed Precip Events Conditions
12:15 AM 32.0 °F 28.7 °F 32.0 °F 100% 30.01 in 5.0 mi North 3.5 mph - N/A   Scattered Clouds
12:35 AM 32.0 °F 27.5 °F 32.0 °F 100% 30.00 in 5.0 mi East 4.6 mph - N/A   Overcast
12:55 AM 32.0 °F - 32.0 °F 100% 30.00 in 4.0 mi Calm Calm - N/A   Mostly Cloudy
1:15 AM 32.0 °F - 32.0 °F 100% 30.01 in 3.0 mi Calm Calm - N/A   Mostly Cloudy
1:35 AM 32.0 °F 28.7 °F 32.0 °F 100% 30.00 in 2.5 mi West 3.5 mph - N/A   Partly Cloudy
1:55 AM 32.0 °F - 32.0 °F 100% 29.99 in 3.0 mi Calm Calm - N/A   Clear
2:15 AM 28.4 °F 24.6 °F 28.4 °F 100% 29.99 in 2.5 mi NE 3.5 mph - N/A   Clear
2:35 AM 28.4 °F - 28.4 °F 100% 30.00 in 2.5 mi Calm Calm - N/A   Clear
2:55 AM 28.4 °F - 28.4 °F 100% 30.02 in 2.0 mi Calm Calm - N/A   Clear
3:15 AM 28.4 °F 24.6 °F 28.4 °F 100% 30.02 in 2.0 mi ENE 3.5 mph - N/A   Clear
3:35 AM 28.4 °F - 28.4 °F 100% 30.02 in 2.5 mi Calm Calm - N/A   Clear
3:55 AM 28.4 °F - 28.4 °F 100% 30.02 in 2.0 mi Calm Calm - N/A   Clear
4:15 AM 28.4 °F - 28.4 °F 100% 30.02 in 3.0 mi Calm Calm - N/A   Clear
4:35 AM 28.4 °F - 28.4 °F 100% 30.02 in 3.0 mi Calm Calm - N/A   Partly Cloudy
4:55 AM 28.4 °F 24.6 °F 28.4 °F 100% 30.01 in 2.5 mi East 3.5 mph - N/A   Partly Cloudy
5:15 AM 28.4 °F 22.2 °F 28.4 °F 100% 30.02 in 3.0 mi WSW 5.8 mph - N/A   Clear
5:35 AM 26.6 °F - 26.6 °F 100% 30.02 in 3.0 mi Calm Calm - N/A   Partly Cloudy
5:55 AM 26.6 °F - 26.6 °F 100% 30.01 in 2.5 mi Calm Calm - N/A   Clear
6:15 AM 28.4 °F - 28.4 °F 100% 30.01 in 2.5 mi Calm Calm - N/A   Clear
6:35 AM 28.4 °F - 28.4 °F 100% 30.01 in 2.5 mi Calm Calm - N/A   Clear
6:55 AM 26.6 °F - 26.6 °F 100% 30.01 in 3.0 mi Calm Calm - N/A   Scattered Clouds
7:15 AM 26.6 °F - 26.6 °F 100% 30.01 in 2.5 mi Calm Calm - N/A   Mostly Cloudy
7:35 AM 28.4 °F - 28.4 °F 100% 30.02 in 3.0 mi Calm Calm - N/A   Overcast
7:55 AM 28.4 °F - 28.4 °F 100% 30.00 in 2.5 mi Calm Calm - N/A   Scattered Clouds
8:15 AM 28.4 °F - 28.4 °F 100% 30.01 in 2.0 mi Calm Calm - N/A   Clear
8:35 AM 26.6 °F 21.2 °F 26.6 °F 100% 30.01 in 2.5 mi East 4.6 mph - N/A   Clear
8:55 AM 32.0 °F 25.6 °F 32.0 °F 100% 30.01 in 4.0 mi ESE 6.9 mph - N/A   Clear
9:35 AM 35.6 °F 29.9 °F 35.6 °F 100% 30.00 in 10.0 mi SE 6.9 mph - N/A   Clear
9:55 AM 37.4 °F 32.8 °F 37.4 °F 100% 30.00 in 10.0 mi South 5.8 mph - N/A   Clear
10:15 AM 39.2 °F 35.9 °F 39.2 °F 100% 30.00 in 10.0 mi SSE 4.6 mph - N/A   Clear
10:35 AM 41.0 °F 37.1 °F 41.0 °F 100% 30.00 in 10.0 mi SE 5.8 mph - N/A   Clear
10:55 AM 44.6 °F 38.8 °F 44.6 °F 100% 29.98 in 10.0 mi SSE 11.5 mph - N/A   Clear
11:15 AM 46.4 °F 41.9 °F 44.6 °F 93% 29.98 in 10.0 mi SE 9.2 mph - N/A   Clear
11:35 AM 48.2 °F - 44.6 °F 87% 29.97 in 10.0 mi SSE 10.4 mph - N/A   Clear
11:55 AM 48.2 °F - 42.8 °F 82% 29.95 in 10.0 mi SSE 9.2 mph - N/A   Clear
12:15 PM 50.0 °F - 41.0 °F 71% 29.94 in 10.0 mi SSE 10.4 mph - N/A   Clear
12:55 PM 53.6 °F - 39.2 °F 58% 29.92 in 10.0 mi SSE 15.0 mph 18.4 mph N/A   Clear
1:15 PM 53.6 °F - 39.2 °F 58% 29.92 in 10.0 mi South 6.9 mph 16.1 mph N/A   Clear
1:35 PM 53.6 °F - 39.2 °F 58% 29.92 in 10.0 mi South 11.5 mph - N/A   Clear
1:55 PM 53.6 °F - 39.2 °F 58% 29.91 in 10.0 mi South 13.8 mph - N/A   Clear
2:15 PM 53.6 °F - 39.2 °F 58% 29.90 in 10.0 mi South 10.4 mph - N/A   Clear
2:35 PM 51.8 °F - 39.2 °F 62% 29.89 in 10.0 mi South 11.5 mph 17.3 mph N/A   Clear
3:15 PM 53.6 °F - 39.2 °F 58% 29.89 in 10.0 mi SSE 10.4 mph - N/A   Partly Cloudy
3:35 PM 53.6 °F - 39.2 °F 58% 29.90 in 10.0 mi South 10.4 mph - N/A   Mostly Cloudy
3:55 PM 51.8 °F - 39.2 °F 62% 29.89 in 10.0 mi South 12.7 mph 18.4 mph N/A   Mostly Cloudy
4:15 PM 50.0 °F - 39.2 °F 66% 29.89 in 10.0 mi South 11.5 mph 17.3 mph N/A   Mostly Cloudy
4:35 PM 50.0 °F - 41.0 °F 71% 29.88 in 10.0 mi South 8.1 mph - N/A   Mostly Cloudy
4:55 PM 51.8 °F - 39.2 °F 62% 29.87 in 10.0 mi SSE 11.5 mph 19.6 mph N/A   Mostly Cloudy
5:15 PM 51.8 °F - 39.2 °F 62% 29.87 in 10.0 mi SSE 9.2 mph - N/A   Overcast
5:35 PM 50.0 °F - 39.2 °F 66% 29.87 in 10.0 mi South 11.5 mph - N/A   Mostly Cloudy
5:55 PM 50.0 °F - 39.2 °F 66% 29.86 in 10.0 mi South 9.2 mph - N/A   Clear
6:15 PM 50.0 °F - 39.2 °F 66% 29.86 in 10.0 mi SSE 9.2 mph - N/A   Scattered Clouds
6:35 PM 50.0 °F - 39.2 °F 66% 29.85 in 10.0 mi SSE 6.9 mph - N/A   Mostly Cloudy
6:55 PM 48.2 °F - 39.2 °F 71% 29.86 in 10.0 mi SE 4.6 mph - N/A   Partly Cloudy
7:15 PM 48.2 °F - 39.2 °F 71% 29.85 in 10.0 mi SSE 4.6 mph - N/A   Partly Cloudy
7:35 PM 50.0 °F - 37.4 °F 62% 29.84 in 10.0 mi South 12.7 mph 18.4 mph N/A   Clear
7:55 PM 51.8 °F - 35.6 °F 54% 29.84 in 10.0 mi SSE 10.4 mph 19.6 mph N/A   Mostly Cloudy
8:15 PM 51.8 °F - 35.6 °F 54% 29.83 in 10.0 mi SSE 11.5 mph 20.7 mph N/A   Mostly Cloudy
8:35 PM 50.0 °F - 37.4 °F 62% 29.83 in 10.0 mi South 6.9 mph - N/A   Partly Cloudy
8:55 PM 50.0 °F - 35.6 °F 58% 29.81 in 10.0 mi SE 15.0 mph - N/A   Scattered Clouds
9:15 PM 50.0 °F - 35.6 °F 58% 29.82 in 10.0 mi South 11.5 mph 19.6 mph N/A   Mostly Cloudy
9:55 PM 50.0 °F - 37.4 °F 62% 29.80 in 10.0 mi South 11.5 mph - N/A   Mostly Cloudy
10:15 PM 50.0 °F - 37.4 °F 62% 29.81 in 10.0 mi SSE 9.2 mph - N/A   Mostly Cloudy
10:35 PM 51.8 °F - 35.6 °F 54% 29.80 in 10.0 mi SE 13.8 mph 18.4 mph N/A   Mostly Cloudy
10:55 PM 51.8 °F - 35.6 °F 54% 29.80 in 10.0 mi SSE 12.7 mph 16.1 mph N/A   Mostly Cloudy
11:15 PM 51.8 °F - 35.6 °F 54% 29.79 in 10.0 mi SE 16.1 mph 24.2 mph N/A   Mostly Cloudy
11:35 PM 51.8 °F - 35.6 °F 54% 29.78 in 10.0 mi SE 13.8 mph 21.9 mph N/A   Mostly Cloudy
11:55 PM 53.6 °F - 35.6 °F 51% 29.76 in 10.0 mi SE 19.6 mph 26.5 mph N/A   Scattered Clouds